カタログに戻る

BREEZE-M DEB

LostHEO
NORAD 38639·DEBRIS·🇷🇺 Russia

打ち上げ Mar 14, 2008 から Baikonur Cosmodrome

Loading…

次のパス (今後24時間)

TLE

古いSource: Space-Track

元期: May 28, 2013, 09:05 UTC

1 38639U 08011CN  13148.37901888  .00012897  00000-0  70873-1 0  9993
2 38639 049.2412 231.5165 6569167 213.6656 078.1615 03.03367833 21912

AllMySatでBREEZE-M DEBをリアルタイム追跡

Download on the App Store